Location: Unspecified
(0.0000°N, 0.0000°E)
Time: 14:35:46
(UTC+00:00)

N. Korean satellite - Pass Details

Date: 17 August 2019
Orbit: 457 x 507 km, 97.2° (Epoch: 20 August)

Event Time Altitude Azimuth Distance (km) Brightness Sun altitude
Rises 05:25:25 0° 17° (NNE) 2,525 10.7 -9.4°
Reaches altitude 10° 05:27:30 10° 21° (NNE) 1,641 9.7 -8.9°
Maximum altitude 05:30:59 59° 101° (E) 549 7.2 -8.1°
Drops below altitude 10° 05:34:25 10° 181° (S) 1,623 9.1 -7.2°
Sets 05:36:28 0° 185° (S) 2,494 10.0 -6.7°
